Time,TemperatureF,DewpointF,PressureIn,WindDirection,WindDirectionDegrees,WindSpeedMPH,WindSpeedGustMPH,Humidity,HourlyPrecipIn,Conditions,Clouds,dailyrainin,SoftwareType,DateUTC
2013-08-01 00:08:00,57.0,54.0,30.02,WNW,293,0.0,2.0,89,0.00,,,0.00,weatherlink.com 1.10,2013-08-01 04:08:00,
2013-08-01 00:23:00,57.1,54.0,30.02,WNW,293,0.0,0.0,88,0.00,,,0.00,weatherlink.com 1.10,2013-08-01 04:23:00,
2013-08-01 00:38:00,57.6,54.0,30.01,WNW,293,0.0,0.0,86,0.00,,,0.00,weatherlink.com 1.10,2013-08-01 04:38:00,
2013-08-01 00:53:00,57.4,53.0,30.01,WNW,293,1.0,2.0,86,0.00,,,0.00,weatherlink.com 1.10,2013-08-01 04:53:00,
2013-08-01 01:08:00,57.5,53.0,30.01,WNW,293,0.0,1.0,85,0.00,,,0.00,weatherlink.com 1.10,2013-08-01 05:08:00,
2013-08-01 01:23:00,57.7,53.0,30.01,WNW,293,0.0,1.0,84,0.00,,,0.00,weatherlink.com 1.10,2013-08-01 05:23:00,
2013-08-01 01:38:00,56.9,53.0,30.01,WNW,293,1.0,3.0,86,0.00,,,0.00,weatherlink.com 1.10,2013-08-01 05:38:00,
2013-08-01 01:53:00,56.4,53.0,30.00,WNW,293,0.0,0.0,89,0.00,,,0.00,weatherlink.com 1.10,2013-08-01 05:53:00,
2013-08-01 02:09:00,57.1,53.0,30.00,WNW,293,2.0,3.0,85,0.00,,,0.00,weatherlink.com 1.10,2013-08-01 06:09:00,
2013-08-01 02:24:00,56.6,53.0,30.00,WNW,292,2.0,4.0,87,0.00,,,0.00,weatherlink.com 1.10,2013-08-01 06:24:00,
2013-08-01 02:39:00,57.2,53.0,30.00,WNW,292,1.0,2.0,85,0.00,,,0.00,weatherlink.com 1.10,2013-08-01 06:39:00,
2013-08-01 02:54:00,57.0,53.0,30.00,WNW,292,0.0,3.0,86,0.00,,,0.00,weatherlink.com 1.10,2013-08-01 06:54:00,
2013-08-01 03:09:00,58.2,53.0,29.99,WNW,292,0.0,1.0,83,0.00,,,0.00,weatherlink.com 1.10,2013-08-01 07:09:00,
2013-08-01 03:24:00,58.3,53.0,29.99,WNW,292,1.0,1.0,83,0.00,,,0.00,weatherlink.com 1.10,2013-08-01 07:24:00,
2013-08-01 03:39:00,58.4,53.0,29.98,WNW,292,1.0,3.0,82,0.00,,,0.00,weatherlink.com 1.10,2013-08-01 07:39:00,
2013-08-01 03:54:00,57.8,53.0,29.98,WNW,292,0.0,1.0,85,0.00,,,0.00,weatherlink.com 1.10,2013-08-01 07:54:00,
2013-08-01 04:09:00,57.6,53.0,29.98,WNW,287,1.0,4.0,84,0.00,,,0.00,weatherlink.com 1.10,2013-08-01 08:09:00,
2013-08-01 04:39:00,57.1,53.0,29.97,WNW,283,1.0,1.0,87,0.00,,,0.00,weatherlink.com 1.10,2013-08-01 08:39:00,
2013-08-01 04:54:00,56.6,53.0,29.97,WNW,283,1.0,2.0,88,0.00,,,0.00,weatherlink.com 1.10,2013-08-01 08:54:00,
2013-08-01 05:39:00,55.3,52.0,29.97,WNW,283,0.0,0.0,89,0.00,,,0.00,weatherlink.com 1.10,2013-08-01 09:39:00,
2013-08-01 05:54:00,55.4,52.0,29.97,WNW,283,0.0,1.0,89,0.00,,,0.00,weatherlink.com 1.10,2013-08-01 09:54:00,
2013-08-01 06:09:00,55.9,53.0,29.97,WNW,283,0.0,0.0,91,0.00,,,0.00,weatherlink.com 1.10,2013-08-01 10:09:00,
2013-08-01 06:39:00,60.4,56.0,29.97,WNW,283,1.0,1.0,86,0.00,,,0.00,weatherlink.com 1.10,2013-08-01 10:39:00,
2013-08-01 07:39:00,65.4,57.0,29.96,South,183,4.0,9.0,75,0.00,,,0.00,weatherlink.com 1.10,2013-08-01 11:39:00,
2013-08-01 08:39:00,67.3,58.0,29.94,South,171,4.0,13.0,71,0.00,,,0.00,weatherlink.com 1.10,2013-08-01 12:39:00,
2013-08-01 09:25:00,70.5,57.0,29.93,South,171,6.0,12.0,63,0.00,,,0.00,weatherlink.com 1.10,2013-08-01 13:25:00,
2013-08-01 09:40:00,71.1,58.0,29.93,SSW,198,3.0,18.0,63,0.00,,,0.00,weatherlink.com 1.10,2013-08-01 13:40:00,
2013-08-01 09:55:00,71.0,56.0,29.93,SW,220,10.0,14.0,60,0.00,,,0.00,weatherlink.com 1.10,2013-08-01 13:55:00,
2013-08-01 10:10:00,70.9,57.0,29.92,WSW,242,9.0,18.0,62,0.00,,,0.00,weatherlink.com 1.10,2013-08-01 14:10:00,
2013-08-01 10:40:00,71.1,56.0,29.91,SSW,211,7.0,17.0,60,0.00,,,0.00,weatherlink.com 1.10,2013-08-01 14:40:00,
2013-08-01 11:10:00,72.6,57.0,29.91,South,182,4.0,18.0,58,0.00,,,0.00,weatherlink.com 1.10,2013-08-01 15:10:00,
2013-08-01 11:25:00,73.3,57.0,29.90,SW,221,11.0,13.0,57,0.00,,,0.00,weatherlink.com 1.10,2013-08-01 15:25:00,
2013-08-01 11:55:00,73.1,57.0,29.89,SSW,205,7.0,18.0,57,0.00,,,0.00,weatherlink.com 1.10,2013-08-01 15:55:00,
2013-08-01 12:10:00,73.1,57.0,29.88,SSE,158,7.0,15.0,57,0.00,,,0.00,weatherlink.com 1.10,2013-08-01 16:10:00,
2013-08-01 12:25:00,73.8,57.0,29.88,SSW,213,3.0,14.0,56,0.00,,,0.00,weatherlink.com 1.10,2013-08-01 16:25:00,
2013-08-01 13:10:00,72.3,56.0,29.86,SW,235,8.0,17.0,57,0.00,,,0.00,weatherlink.com 1.10,2013-08-01 17:10:00,
2013-08-01 13:25:00,73.7,56.0,29.85,SSW,205,10.0,18.0,54,0.00,,,0.00,weatherlink.com 1.10,2013-08-01 17:25:00,
2013-08-01 13:40:00,73.3,57.0,29.85,SW,215,10.0,18.0,56,0.00,,,0.00,weatherlink.com 1.10,2013-08-01 17:40:00,
2013-08-01 13:55:00,73.8,57.0,29.84,WSW,237,4.0,16.0,57,0.00,,,0.00,weatherlink.com 1.10,2013-08-01 17:55:00,
2013-08-01 14:25:00,74.0,57.0,29.84,WSW,238,10.0,18.0,56,0.00,,,0.00,weatherlink.com 1.10,2013-08-01 18:25:00,
2013-08-01 14:40:00,73.3,58.0,29.84,SW,229,8.0,17.0,59,0.00,,,0.00,weatherlink.com 1.10,2013-08-01 18:40:00,
2013-08-01 15:25:00,72.7,57.0,29.83,SW,219,8.0,21.0,58,0.00,,,0.00,weatherlink.com 1.10,2013-08-01 19:25:00,
2013-08-01 15:40:00,72.8,57.0,29.82,SSW,211,3.0,21.0,57,0.00,,,0.00,weatherlink.com 1.10,2013-08-01 19:40:00,
2013-08-01 16:25:00,72.2,59.0,29.81,South,180,10.0,17.0,63,0.00,,,0.00,weatherlink.com 1.10,2013-08-01 20:25:00,
2013-08-01 16:40:00,70.6,58.0,29.82,SW,223,11.0,17.0,65,0.00,,,0.00,weatherlink.com 1.10,2013-08-01 20:40:00,
2013-08-01 16:55:00,70.3,58.0,29.82,SW,231,8.0,20.0,66,0.00,,,0.00,weatherlink.com 1.10,2013-08-01 20:55:00,
2013-08-01 17:10:00,69.7,59.0,29.82,SW,216,9.0,15.0,68,0.00,,,0.00,weatherlink.com 1.10,2013-08-01 21:10:00,
2013-08-01 17:25:00,68.9,59.0,29.81,SW,223,12.0,15.0,71,0.00,,,0.00,weatherlink.com 1.10,2013-08-01 21:25:00,
2013-08-01 17:40:00,68.5,59.0,29.82,SSW,203,3.0,10.0,72,0.00,,,0.00,weatherlink.com 1.10,2013-08-01 21:40:00,
2013-08-01 17:55:00,68.0,59.0,29.82,South,190,3.0,18.0,73,0.00,,,0.00,weatherlink.com 1.10,2013-08-01 21:55:00,
2013-08-01 18:25:00,65.8,60.0,29.82,SSW,196,11.0,19.0,80,0.00,,,0.00,weatherlink.com 1.10,2013-08-01 22:25:00,
2013-08-01 18:55:00,65.3,59.0,29.82,SSW,211,10.0,15.0,81,0.00,,,0.00,weatherlink.com 1.10,2013-08-01 22:55:00,
2013-08-01 19:10:00,65.0,59.0,29.82,SW,225,4.0,17.0,81,0.00,,,0.00,weatherlink.com 1.10,2013-08-01 23:10:00,
2013-08-01 19:25:00,64.6,58.0,29.82,SW,223,18.0,19.0,80,0.00,,,0.00,weatherlink.com 1.10,2013-08-01 23:25:00,
2013-08-01 19:55:00,63.7,58.0,29.82,SSW,202,11.0,17.0,82,0.00,,,0.00,weatherlink.com 1.10,2013-08-01 23:55:00,
2013-08-01 20:25:00,61.8,58.0,29.82,SSW,202,7.0,17.0,87,0.00,,,0.00,weatherlink.com 1.10,2013-08-02 00:25:00,
2013-08-01 20:55:00,60.5,58.0,29.82,SSW,198,7.0,14.0,92,0.02,,,0.02,weatherlink.com 1.10,2013-08-02 00:55:00,
2013-08-01 21:25:00,60.3,58.0,29.81,South,190,3.0,10.0,93,0.04,,,0.04,weatherlink.com 1.10,2013-08-02 01:25:00,
2013-08-01 21:41:00,60.3,59.0,29.81,SSW,204,6.0,8.0,94,0.04,,,0.04,weatherlink.com 1.10,2013-08-02 01:41:00,
2013-08-01 21:56:00,60.3,59.0,29.81,SSW,194,3.0,12.0,94,0.02,,,0.04,weatherlink.com 1.10,2013-08-02 01:56:00,
2013-08-01 22:11:00,60.4,59.0,29.80,South,190,3.0,11.0,95,0.00,,,0.04,weatherlink.com 1.10,2013-08-02 02:11:00,
2013-08-01 22:56:00,60.6,59.0,29.79,SSW,207,4.0,8.0,94,0.00,,,0.04,weatherlink.com 1.10,2013-08-02 02:56:00,
2013-08-01 23:26:00,60.7,59.0,29.78,SSW,192,2.0,6.0,95,0.00,,,0.04,weatherlink.com 1.10,2013-08-02 03:26:00,